This is the latest recevied weather packets stored in our database for station/object DC2ML-11. If no packets are shown the sender has not sent any weather packets the latest 10 day(s).
| Time | Temp. | Humidity | Pressure | Rain* | Wind** | Luminosity | Snow |
|---|---|---|---|---|---|---|---|
| 1777659999 | 22.22° C | 35% | 1023 hPa | - | - | - | - |
| 1777659099 | 22.78° C | 35% | 1022.9 hPa | - | - | - | - |
| 1777658199 | 22.78° C | 35% | 1022.8 hPa | - | - | - | - |
| 1777657299 | 22.78° C | 35% | 1022.8 hPa | - | - | - | - |
| 1777656398 | 22.78° C | 35% | 1022.8 hPa | - | - | - | - |
| 1777655499 | 22.22° C | 35% | 1022.9 hPa | - | - | - | - |
| 1777654598 | 22.22° C | 36% | 1022.9 hPa | - | - | - | - |
| 1777653698 | 22.22° C | 35% | 1023 hPa | - | - | - | - |
| 1777652798 | 22.22° C | 36% | 1023.1 hPa | - | - | - | - |
| 1777651898 | 22.22° C | 36% | 1023.2 hPa | - | - | - | - |
| 1777650997 | 21.67° C | 36% | 1023.3 hPa | - | - | - | - |
| 1777650097 | 21.67° C | 36% | 1023.4 hPa | - | - | - | - |
| 1777649197 | 21.67° C | 36% | 1023.5 hPa | - | - | - | - |
| 1777648297 | 21.67° C | 36% | 1023.8 hPa | - | - | - | - |
| 1777647397 | 21.11° C | 36% | 1023.8 hPa | - | - | - | - |
| 1777646497 | 21.11° C | 36% | 1024.1 hPa | - | - | - | - |
| 1777645597 | 20.56° C | 36% | 1024.2 hPa | - | - | - | - |
| 1777644697 | 20.56° C | 36% | 1024.3 hPa | - | - | - | - |
| 1777643797 | 20.56° C | 36% | 1024.5 hPa | - | - | - | - |
| 1777642897 | 20° C | 36% | 1024.6 hPa | - | - | - | - |
| 1777641997 | 20° C | 36% | 1024.9 hPa | - | - | - | - |
| 1777641097 | 20° C | 36% | 1025.1 hPa | - | - | - | - |
| 1777640197 | 19.44° C | 36% | 1025.2 hPa | - | - | - | - |
| 1777639297 | 19.44° C | 37% | 1025.4 hPa | - | - | - | - |
| 1777638397 | 18.89° C | 37% | 1025.6 hPa | - | - | - | - |
* Rain since midnight (hover to see other rain measurements)
** Current wind speed in m/s (hover to see current wind gust speed)